AO-07
1 07530U 74089B 26261.97448698 -.00000049 00000-0 -13766-4 0 9997
2 07530 101.9920 276.2014 0012003 313.5220 60.0924 12.53699609372275


Ligne 0
Le nom commun de l'objetAO-07
Ligne 1
Numéro de catalogue satellite07530U
Désignateur international74089B
Année de lancement74
Numéro de lancement dans l'année089
Object du lancementB
Époque (année)26
Époque (Jour de l'année en UTC)261.97448698
1ère dérivée du mouvement moyen-.00000049
2ème dérivée du mouvement moyen 00000-0
B * Terme de glissement-13766-4
Type de jeu d'éléments0
Numéro d'élément 999
Ligne 2
Numéro de catalogue satellite07530
Inclinaison de l'orbite (degrés)101.9920
Ascension droite du nœud ascendant (degrés)276.2014
Excentricité0012003
Argument du Périgée (degrés)313.5220
Anomalie moyenne (degrés) 60.0924
Mouvement moyen (révolutions / jour)12.53699609
Numéro de révolution à l'époque37227
Valeurs déduites
Période Orbitale (en minutes)114.9 min.
Demi-grand axe (en kilomètres)7827.2 Km
Altitude à l‘Apogée (en kilomètres)1465.6 Km
Altitude au Périgée (en kilomètres)1446.8 Km

* Sources des TLE's : Celestrack